Theta_e
296 296 296 296 296 296 295 295 295 296 296 296 296 296 295 294 293 292 291 291 291 291 291 292 292 292 292 291 291 291 291 291 291 291 291 292 292 292 292 292 291 291 291 291 291 291 291 291 290 290 290 289 289 289 289 289 289 289 289 289 290 290 290 290 290 290 290 291 291 291 291 291 291 291
295 296 296 295 295 295 295 295 295 295 295 295 295 295 295 294 293 292 291 291 290 290 290 291 291 291 290 290 290 290 290 290 290 291 291 291 291 291 291 291 291 290 290 290 290 290 290 289 289 289 289 289 288 288 288 289 289 289 289 289 289 289 289 289 290 290 290 290 291 291 291 291 291 291
295 295 295 295 295 295 295 295 295 295 295 295 295 295 294 294 293 292 291 290 290 290 290 290 290 290 290 289 290 290 290 290 290 290 290 290 290 291 290 290 290 290 289 289 289 289 289 288 288 288 288 288 288 288 288 288 288 289 289 289 289 289 289 289 289 289 289 290 290 290 291 291 291 291
294 295 295 295 295 295 295 295 295 295 295 295 295 294 294 294 293 292 292 291 290 290 290 290 290 290 289 289 289 290 290 289 289 289 289 289 290 290 290 289 289 289 289 289 289 289 289 289 289 289 288 288 288 288 288 288 289 289 289 289 289 289 289 289 289 289 289 289 289 290 290 290 291 291
294 294 295 295 295 295 295 295 295 295 294 294 294 294 294 294 293 293 292 291 290 290 289 289 289 289 289 289 289 290 289 288 288 288 288 289 289 290 290 289 289 289 289 289 289 289 289 289 289 288 288 288 288 288 288 288 288 288 288 288 289 289 289 289 289 289 289 289 289 289 289 290 290 290
294 294 294 295 295 294 294 294 294 294 294 294 294 294 294 294 293 293 292 291 290 290 289 289 289 289 289 289 289 289 289 289 289 289 289 289 290 290 290 289 289 289 289 289 289 289 289 289 288 288 288 288 288 288 287 287 287 288 288 288 288 289 289 288 289 289 289 289 289 289 289 289 289 289
294 294 294 294 294 294 294 294 294 294 294 294 294 294 294 294 293 292 291 291 290 290 289 289 289 289 289 289 289 289 290 290 291 291 290 290 290 289 289 289 289 289 289 289 289 289 289 288 288 288 288 288 287 287 287 287 287 288 288 288 288 288 288 288 288 288 288 288 289 289 289 289 289 289
294 294 294 294 294 294 294 294 294 294 294 294 294 294 294 294 293 292 291 290 290 290 289 289 289 289 289 289 290 290 290 291 291 291 291 290 290 289 289 289 289 289 289 289 289 289 289 288 288 288 288 287 287 287 287 288 288 288 288 288 288 288 288 288 288 288 288 288 288 288 288 289 289 289
295 294 294 294 294 294 294 294 294 294 294 294 294 294 294 293 293 292 291 290 290 289 289 289 289 289 289 290 290 290 291 291 291 291 290 290 290 290 290 289 289 289 289 289 289 289 288 288 288 287 287 287 288 288 288 288 288 288 288 288 287 287 287 287 287 287 288 288 288 288 288 287 288 288
295 294 294 294 294 294 294 294 294 294 294 294 293 293 293 293 293 292 291 290 290 289 289 289 289 289 289 290 290 290 290 291 291 291 290 290 290 290 290 289 289 289 289 289 289 288 288 288 287 287 287 287 288 288 288 288 288 287 287 287 287 287 287 287 287 287 287 288 288 288 287 287 287 287
295 294 293 293 293 293 293 294 294 294 294 294 293 293 293 293 292 292 291 290 290 289 289 289 289 289 289 289 290 290 290 290 290 290 290 290 289 289 288 288 288 288 288 287 287 287 287 287 287 287 287 287 287 287 287 287 287 287 287 287 287 287 287 287 287 287 287 287 287 287 287 287 287 286
295 294 293 293 293 293 293 293 293 294 294 293 293 293 293 293 292 291 291 290 290 289 289 289 288 288 289 289 289 289 289 289 289 289 289 288 287 287 287 287 286 286 286 286 286 286 286 286 286 286 286 286 287 286 286 286 286 286 286 286 286 286 286 286 286 286 287 287 287 287 287 287 287 286
295 294 293 293 292 292 292 293 293 293 293 293 293 293 293 292 292 291 291 290 289 289 289 288 288 288 289 289 289 288 288 288 288 288 287 286 286 285 286 285 285 285 285 285 285 285 285 285 286 286 286 286 286 286 286 286 285 285 285 285 285 285 286 286 286 286 286 286 286 287 287 286 286 286
295 294 293 292 292 292 292 292 292 292 292 293 293 292 292 292 292 291 291 290 289 289 288 288 288 288 288 288 288 288 288 287 287 286 285 285 284 284 284 284 284 284 284 283 284 284 284 285 285 285 285 285 285 285 285 285 284 284 285 285 285 285 285 285 285 285 285 285 286 286 286 286 286 285
295 294 293 292 292 291 291 291 291 291 291 291 291 291 290 290 290 290 290 290 289 288 288 288 288 288 288 288 287 287 287 286 285 285 284 284 283 282 283 284 284 283 283 283 284 284 284 285 285 285 284 285 284 284 284 284 284 284 284 284 284 284 284 284 284 284 285 285 285 285 285 285 285 285
294 294 293 292 291 291 291 291 291 290 290 290 290 290 289 288 288 289 289 289 289 288 287 287 288 288 288 287 287 287 287 286 285 284 284 283 283 283 283 284 284 283 282 283 284 284 284 284 284 284 284 284 284 284 284 284 284 283 283 283 284 284 284 284 284 284 284 284 284 284 284 284 284 285
294 294 293 292 291 291 290 290 290 290 290 289 289 288 288 288 288 288 288 289 288 287 287 287 288 288 287 287 287 287 286 285 284 284 283 283 283 283 283 283 283 282 282 283 283 284 284 284 284 284 284 284 284 284 284 283 283 283 283 283 283 283 283 283 283 283 283 283 284 284 284 284 284 284
295 294 294 293 292 291 290 290 290 289 289 289 288 288 288 288 288 288 288 288 287 287 287 287 287 287 287 287 287 286 286 285 284 284 284 283 283 283 283 283 283 282 282 282 282 283 284 283 283 284 284 284 284 284 284 283 283 283 283 283 283 283 282 283 283 283 283 283 283 284 284 284 284 284
294 294 294 293 293 292 291 290 290 289 289 289 288 288 288 288 288 287 288 288 288 287 287 287 287 287 286 286 286 286 285 284 284 284 283 283 282 282 283 283 282 282 282 282 282 283 283 282 283 283 283 283 284 284 284 284 283 283 283 283 283 283 282 282 283 283 283 283 283 284 284 284 284 284
293 293 293 293 292 292 291 290 289 289 289 288 288 288 288 288 287 287 287 287 287 287 287 287 286 286 286 286 286 285 284 284 284 283 282 281 281 281 282 282 282 282 282 282 282 282 282 282 282 283 283 283 284 284 284 284 283 283 283 283 283 282 282 282 283 283 283 283 283 283 284 284 284 284
292 292 292 292 292 291 290 289 288 288 288 288 288 288 288 287 287 287 287 286 286 286 286 286 286 286 286 285 284 284 283 283 283 282 281 281 281 281 281 281 282 282 281 282 282 282 282 281 281 282 283 283 283 284 283 283 283 283 283 283 282 282 282 283 283 283 283 283 283 283 283 283 283 283
291 291 291 291 291 290 289 288 287 287 288 288 288 288 288 287 287 287 286 286 285 285 285 285 285 285 285 284 283 283 282 282 281 281 280 280 281 281 281 281 281 281 281 281 281 281 281 281 280 281 283 283 284 284 283 283 283 283 282 282 282 282 283 283 283 283 283 283 283 283 283 283 282 281
290 290 290 289 289 289 288 287 287 287 287 287 287 287 287 287 287 287 286 285 285 285 285 285 285 285 285 284 283 282 281 281 280 280 280 280 281 281 280 280 280 280 280 280 280 280 280 280 279 280 281 282 283 283 283 282 282 282 282 282 282 282 282 282 282 282 282 282 282 282 281 281 280 279
289 288 288 288 288 288 288 287 286 286 286 287 287 287 287 287 287 287 286 285 284 284 284 285 285 285 284 283 282 281 280 280 280 280 280 280 280 280 280 280 279 279 279 278 278 278 279 279 279 279 278 279 280 282 282 282 282 281 281 281 282 282 282 282 282 282 282 282 281 280 280 279 278 277
289 289 289 288 288 288 287 286 285 284 285 286 286 287 287 287 287 286 285 284 284 283 283 284 284 284 283 282 280 280 279 279 279 279 279 280 280 280 280 279 279 279 278 278 278 278 278 278 278 278 278 277 278 279 280 281 281 281 281 281 281 282 281 281 281 281 280 280 280 279 278 277 276 275
288 289 289 288 288 287 287 286 284 284 284 285 286 286 286 285 285 284 284 283 283 283 283 283 283 283 282 281 280 279 279 279 279 279 279 279 279 279 279 279 278 278 278 278 277 277 277 277 277 277 277 277 277 278 279 280 280 281 281 281 280 281 281 280 280 281 280 279 278 278 277 276 275 274
288 288 288 288 287 287 287 286 284 284 284 285 286 286 285 284 284 283 283 282 282 283 283 283 282 282 281 280 279 279 279 279 279 279 279 279 279 279 279 278 278 277 277 277 277 276 277 277 277 277 276 276 277 277 278 278 279 279 280 281 280 280 280 280 280 280 279 279 278 277 276 276 275 273
288 288 288 287 287 286 286 285 285 285 285 286 286 285 284 284 283 282 282 282 282 283 283 282 282 281 280 279 279 279 278 278 278 278 279 279 279 279 278 278 278 277 277 277 276 276 276 277 276 276 276 276 276 276 276 277 278 277 279 280 280 280 279 279 279 278 277 277 277 276 275 275 275 273
287 287 286 286 286 285 285 285 285 285 284 284 285 285 285 283 282 281 282 282 282 283 283 282 281 280 279 279 278 278 277 277 278 278 278 278 278 278 278 278 278 277 277 276 276 276 276 277 276 276 276 275 275 274 274 275 276 276 277 278 279 279 279 279 279 278 276 276 275 275 275 275 273 273
286 286 285 285 285 285 285 285 285 284 283 283 284 284 283 282 280 281 282 283 282 282 282 281 280 279 278 278 277 277 277 277 277 278 278 278 278 278 278 278 278 277 277 276 276 276 276 276 276 276 276 275 274 273 272 272 274 276 277 276 276 277 278 278 279 278 277 275 274 275 276 276 273 272
285 285 285 284 285 284 284 284 283 283 282 282 282 282 281 280 280 281 282 283 282 281 280 279 278 277 277 277 276 276 276 277 277 278 277 277 277 278 278 278 278 277 277 276 276 276 276 276 276 276 276 275 274 273 271 271 272 275 277 277 275 275 277 277 277 277 276 275 274 274 275 275 273 272
285 285 284 284 284 283 282 282 281 281 281 281 281 280 280 280 280 281 281 281 280 279 278 278 277 276 276 276 276 276 277 277 277 277 277 277 277 277 278 278 278 277 277 277 276 276 276 276 276 275 275 274 274 273 271 271 272 274 275 276 276 276 275 275 275 275 274 273 273 273 273 274 273 271
285 284 284 284 283 281 281 281 280 280 280 280 281 280 280 280 280 280 280 280 279 278 278 277 277 276 276 276 276 276 276 276 276 276 276 277 277 277 277 277 277 277 277 276 276 275 275 275 275 275 275 274 273 273 271 272 274 275 274 274 275 276 276 275 274 274 273 272 272 272 273 273 273 272
285 284 283 282 282 280 280 280 280 280 280 280 280 280 280 280 280 280 280 279 278 277 277 277 276 276 276 276 276 276 276 276 276 276 276 276 276 277 277 276 277 276 276 276 275 275 275 275 275 275 275 274 274 274 272 272 275 276 274 273 274 274 275 276 275 273 272 271 271 271 271 273 273 272
284 284 283 282 281 280 280 280 280 280 280 280 280 280 280 280 280 280 279 278 278 277 277 276 276 276 276 276 276 275 275 275 276 276 276 276 276 276 276 276 276 276 275 275 275 274 274 273 273 274 275 275 275 275 275 273 273 274 274 274 274 273 273 274 274 273 271 270 271 271 270 272 273 272
283 283 282 281 281 280 280 280 280 280 280 280 280 280 280 280 280 280 279 278 278 277 276 276 275 275 275 275 275 275 275 275 276 276 276 276 276 276 276 276 276 275 275 275 274 274 273 272 271 271 272 273 273 274 275 273 271 271 272 273 274 274 273 273 274 274 273 271 270 271 271 271 272 273
283 283 282 281 281 280 280 280 280 280 280 280 280 280 280 281 281 280 279 278 277 277 276 275 275 275 275 275 275 275 275 275 276 276 275 275 276 276 276 276 275 275 275 274 274 273 272 272 271 270 270 270 269 271 274 274 271 269 270 271 273 274 274 272 273 274 274 272 270 271 271 271 272 272
282 282 282 281 281 281 280 280 280 280 280 280 280 280 280 281 280 279 278 277 277 276 276 276 275 275 275 275 275 275 275 275 275 275 275 275 276 275 275 275 275 275 275 274 274 272 271 271 271 269 269 268 268 269 271 273 272 271 270 269 270 272 272 271 270 272 273 271 270 271 271 271 271 272
282 282 282 281 281 281 281 280 280 280 280 280 280 280 280 280 279 278 278 277 277 276 276 276 275 275 275 275 275 275 275 275 275 275 275 275 275 275 275 275 275 274 274 274 273 272 270 270 270 269 268 268 268 268 269 270 271 273 273 271 269 269 269 270 270 270 271 271 270 270 271 271 271 271
281 281 282 282 282 282 282 281 280 280 280 280 280 280 280 279 279 278 278 277 276 276 276 275 275 275 275 275 275 275 275 275 275 275 275 275 275 275 274 274 274 274 274 273 272 271 270 269 269 269 268 268 268 268 268 269 271 273 274 274 272 269 268 269 269 269 270 270 270 270 271 271 271 271
281 281 281 282 282 282 282 281 281 280 280 280 280 279 279 278 278 277 277 276 276 276 275 275 274 275 275 275 275 275 275 275 275 275 275 274 274 274 274 274 274 273 273 273 272 271 270 269 269 269 268 268 268 268 268 268 270 272 273 274 273 271 269 268 269 269 269 270 269 269 270 270 270 271
281 281 281 281 281 281 282 282 281 281 280 279 279 278 278 277 277 276 276 275 275 275 274 274 274 274 274 274 274 274 274 274 274 274 274 274 274 274 274 273 273 272 271 272 272 271 270 269 269 268 268 268 267 267 267 268 268 269 271 272 274 274 272 270 268 268 269 269 269 269 270 270 270 270
281 281 280 280 281 281 281 282 281 280 279 278 278 277 277 277 276 276 275 275 275 274 274 274 274 274 274 274 274 274 274 274 274 274 274 274 274 273 273 272 272 271 271 271 271 271 270 269 269 268 268 267 267 266 267 268 268 268 268 269 271 273 274 272 270 269 268 269 269 269 269 270 270 270
280 280 280 280 280 281 281 281 281 280 279 278 277 277 277 276 276 276 275 275 274 274 274 274 274 274 274 274 274 274 274 274 274 274 274 273 273 273 272 271 271 271 270 270 270 270 270 269 269 268 267 267 267 266 266 267 267 267 268 268 268 270 272 272 272 270 269 269 269 269 269 269 269 270
280 280 280 280 280 280 281 281 280 279 278 277 277 276 276 275 275 275 274 274 274 274 274 274 274 274 274 274 274 274 273 273 273 273 273 273 272 272 271 271 270 269 269 269 269 269 269 269 268 268 267 267 267 267 266 266 266 266 267 267 267 269 270 270 270 270 269 269 269 269 269 269 269 269
Wind_Speed
42 41 39 36 34 31 29 26 24 23 22 20 19 19 19 19 18 17 17 17 17 17 17 16 14 13 11 8 7 6 7 8 9 11 12 14 15 17 19 19 20 21 22 22 23 23 24 24 24 24 23 23 24 24 25 26 26 27 27 28 28 28 29 29 29 29 30 30 31 32 32 32 31 30
44 43 41 39 37 34 32 29 27 25 23 22 20 19 19 19 19 18 17 16 16 16 17 17 15 13 11 9 8 7 7 8 10 11 13 14 16 17 19 20 21 21 22 22 23 23 23 23 23 23 23 23 24 24 25 26 26 27 27 27 27 27 28 29 29 30 30 30 30 31 32 33 32 32
46 45 43 42 40 37 34 32 29 27 25 23 22 21 20 20 19 18 18 17 17 16 16 15 14 12 11 10 9 8 8 10 11 12 14 15 17 18 19 21 22 22 22 22 22 22 21 21 21 21 21 22 22 23 24 25 25 26 27 27 28 28 28 29 30 31 31 31 31 31 32 33 33 34
47 47 46 45 43 40 37 34 32 29 27 25 24 23 22 20 20 20 19 19 19 18 17 16 15 13 13 12 10 10 10 11 13 13 15 16 18 19 20 21 22 22 21 21 21 21 21 21 21 21 21 21 21 22 22 23 24 25 25 26 27 28 29 30 30 31 32 33 34 33 33 33 34 34
49 49 48 47 45 42 40 37 34 32 30 28 26 25 23 22 21 21 20 20 21 21 20 18 17 15 14 13 13 12 11 12 13 14 16 17 18 20 20 20 21 21 21 21 21 21 21 21 21 20 21 21 21 22 23 23 24 24 25 26 28 29 30 30 31 32 33 34 35 35 36 36 35 35
52 51 51 49 47 45 42 39 37 34 32 31 29 27 25 24 23 22 21 20 21 22 22 20 18 17 15 14 15 14 13 13 14 16 17 18 19 20 19 20 20 20 20 20 20 20 20 20 20 20 20 21 21 22 22 23 24 25 27 28 29 30 31 32 32 33 34 34 35 36 37 37 37 37
54 54 53 52 50 47 45 42 40 37 35 33 31 29 27 25 24 23 22 22 22 23 22 21 20 18 17 16 17 17 15 16 17 18 19 20 20 20 19 19 19 20 20 20 20 19 19 19 19 19 20 20 20 21 22 23 25 26 27 29 30 31 32 33 34 34 35 35 36 37 37 37 37 38
55 56 55 54 52 50 48 45 42 40 38 36 34 31 29 27 25 24 24 23 23 23 23 23 22 21 20 19 19 19 18 19 19 20 20 21 21 20 20 19 19 20 20 21 20 19 18 18 18 19 20 20 20 22 23 24 25 26 27 27 28 30 32 33 35 36 36 37 37 37 38 38 38 38
56 57 56 55 54 53 51 48 46 43 41 39 36 33 30 28 26 25 24 24 24 24 24 24 23 23 22 21 20 21 20 20 21 21 21 21 21 21 20 20 20 20 21 21 20 19 19 19 19 20 21 21 22 23 25 26 27 27 27 28 28 29 30 32 33 35 37 38 39 39 39 39 39 39
57 57 57 56 56 55 53 51 48 46 43 40 38 35 32 29 28 26 26 26 25 25 24 25 25 24 24 23 22 22 22 22 23 23 23 22 22 22 20 19 20 21 21 20 19 18 18 19 20 22 22 23 23 24 25 26 27 28 28 29 29 30 31 32 33 34 36 37 39 40 41 41 41 40
58 58 58 58 58 56 54 52 50 47 45 42 39 36 33 31 29 28 27 27 26 26 25 26 26 25 25 24 23 23 23 23 24 25 24 22 21 21 19 17 18 19 20 20 18 17 18 20 21 22 23 23 23 24 24 25 26 27 28 29 31 32 33 34 34 34 36 37 38 39 41 42 42 41
58 58 59 60 59 56 54 53 51 49 46 43 40 37 35 33 31 30 29 29 28 27 27 27 26 25 25 25 23 23 24 23 24 24 23 21 19 19 17 15 15 18 19 20 20 19 20 21 22 23 23 23 24 25 24 25 26 27 29 30 31 32 33 33 34 34 35 36 37 38 39 41 42 43
59 60 60 60 59 57 55 53 52 49 46 44 42 40 38 36 34 32 31 31 30 29 29 28 27 26 26 25 24 24 24 23 22 21 20 19 18 18 16 13 14 17 19 21 21 20 21 23 24 24 25 25 27 27 27 27 28 29 30 31 31 32 33 33 34 34 35 36 37 38 39 40 41 43
60 61 61 61 60 58 56 55 53 50 47 45 42 40 38 37 36 34 33 32 31 31 30 28 27 27 26 25 24 24 24 22 21 19 18 18 17 16 15 13 13 16 20 22 22 20 21 25 27 26 26 27 29 30 30 29 30 31 32 32 33 34 35 35 36 36 36 37 38 39 40 41 42 43
61 61 61 61 61 60 58 57 55 51 48 46 43 40 37 35 35 35 33 32 31 31 30 28 27 28 26 24 24 24 23 22 20 18 17 16 15 15 15 15 14 16 20 22 24 23 22 25 28 27 26 28 30 31 31 31 32 33 33 33 34 35 36 37 38 40 41 41 42 42 42 42 43 44
61 61 62 63 62 61 60 58 56 53 50 47 44 41 39 38 36 35 34 33 32 31 30 29 29 28 26 25 25 24 23 21 19 18 17 16 16 16 16 16 15 16 20 23 26 26 24 26 29 28 27 29 31 31 32 33 34 35 35 34 34 35 37 39 41 43 44 44 45 46 46 45 44 44
61 61 62 62 62 61 60 59 57 54 51 48 45 42 41 40 39 37 35 33 32 31 30 30 29 28 26 25 25 24 22 21 20 19 17 16 16 16 16 17 16 17 20 24 27 28 27 26 29 29 28 29 31 32 33 33 34 35 34 34 35 37 39 42 43 45 46 47 47 47 47 46 45 45
60 61 60 60 60 60 61 60 58 56 53 51 48 46 44 42 40 38 36 35 34 33 33 31 30 28 27 26 25 23 22 22 21 19 17 16 16 17 16 17 17 18 20 23 27 30 29 27 29 30 29 30 33 33 33 33 34 34 33 34 36 38 40 42 43 45 46 47 48 48 48 47 46 45
59 59 59 59 59 59 60 59 59 57 55 52 50 48 46 44 42 40 38 36 36 35 34 32 29 28 28 27 25 23 23 23 21 19 17 16 16 17 17 17 17 17 19 21 26 30 29 28 30 32 31 32 35 35 34 33 32 32 33 35 37 39 41 42 43 44 45 47 48 49 49 48 47 47
58 58 58 57 57 57 57 57 57 57 55 53 51 49 47 45 42 41 38 37 37 36 34 31 29 28 28 27 25 23 23 22 21 18 16 16 16 17 18 17 17 16 18 20 24 29 29 29 32 35 34 34 36 36 35 34 32 32 33 35 38 40 41 42 42 43 44 46 48 49 49 49 48 48
59 58 57 55 54 54 54 55 56 56 55 53 52 50 47 45 43 41 39 38 37 36 33 31 29 28 28 26 24 23 22 21 20 17 15 16 17 18 18 18 18 18 18 19 22 27 29 30 32 36 37 36 37 37 36 36 35 35 35 36 38 39 40 40 41 43 44 46 48 49 50 50 50 50
59 58 56 54 53 52 52 53 54 55 55 54 53 51 48 46 45 43 41 40 38 36 34 32 30 28 28 27 25 22 20 19 19 18 16 17 18 17 17 19 20 19 18 19 21 25 28 28 30 35 39 41 40 38 38 40 41 39 38 38 38 38 39 41 42 43 45 46 48 50 50 51 50 50
58 57 56 53 52 50 49 49 51 53 55 55 53 50 48 47 45 42 40 39 38 37 36 33 31 29 29 27 23 21 19 19 19 19 18 18 18 17 17 17 19 19 18 18 21 25 27 27 28 32 37 43 45 43 41 43 44 43 41 41 41 42 43 44 44 45 46 47 50 51 52 51 49 48
57 56 54 52 51 49 47 47 49 52 55 54 52 49 47 46 44 41 40 40 39 38 36 33 31 30 27 24 21 20 20 20 20 19 19 18 17 17 17 17 19 18 17 17 21 25 26 26 26 28 31 36 44 48 46 45 45 44 44 43 43 45 47 48 49 50 50 50 51 52 52 52 49 45
55 54 53 52 50 49 48 47 48 52 54 52 48 46 45 44 41 40 41 41 39 36 34 32 30 28 26 23 22 21 21 21 20 19 18 18 17 17 17 18 19 18 17 17 20 23 26 26 26 28 29 32 39 47 49 48 46 44 45 45 45 46 48 50 51 53 53 54 54 54 54 53 49 44
53 52 52 51 50 49 47 46 48 50 51 48 45 44 44 42 40 40 40 39 37 35 34 32 30 27 25 23 22 22 22 22 21 19 18 17 17 17 17 18 19 19 18 18 19 21 24 25 25 27 30 33 38 44 48 50 48 46 47 48 47 47 48 50 52 54 54 55 56 57 56 53 49 45
51 50 49 48 47 46 45 45 47 48 47 46 45 44 43 41 40 41 40 38 36 35 34 32 29 27 25 24 24 23 22 21 20 18 17 17 16 17 17 18 19 20 19 19 19 20 23 25 25 26 29 32 37 42 46 49 49 48 49 50 49 49 49 51 53 54 55 56 57 59 59 53 45 41
48 47 45 44 43 43 41 42 44 46 47 48 47 44 42 41 41 43 41 38 36 36 34 32 29 27 26 24 23 22 21 19 19 18 17 17 16 16 17 18 18 19 19 19 19 19 21 24 24 25 27 30 35 39 43 46 48 49 50 51 50 50 50 51 53 55 56 58 57 57 59 55 46 39
45 43 41 38 38 39 40 41 44 45 45 46 46 45 43 43 45 44 41 38 37 37 35 31 28 26 25 23 22 21 19 19 19 18 16 16 15 16 18 18 18 18 18 19 19 18 20 23 24 26 27 29 32 36 39 44 48 49 49 50 52 52 50 50 53 56 59 59 58 58 57 53 46 40
41 40 37 36 36 38 40 42 44 44 42 41 42 42 42 44 45 43 40 39 39 36 32 29 26 24 23 22 21 20 19 18 18 17 16 15 15 16 18 19 18 17 17 18 18 18 20 22 23 26 28 30 32 33 35 41 47 50 49 49 51 52 52 52 53 56 59 60 59 61 60 53 46 43
39 38 35 35 36 37 39 40 41 42 42 39 37 37 40 42 40 38 38 38 34 30 27 25 24 23 23 22 20 19 18 17 17 17 15 15 15 17 19 20 19 17 16 17 17 17 19 21 22 24 28 30 33 34 35 38 44 49 50 48 48 51 53 55 55 56 58 60 60 61 60 54 49 45
37 36 35 35 34 35 37 38 40 42 43 41 39 38 39 39 37 36 36 33 28 26 26 25 24 23 22 20 19 18 17 17 17 16 15 15 16 17 18 20 21 19 18 18 17 17 18 19 21 23 26 30 34 36 37 39 43 48 49 47 48 52 54 54 55 57 56 56 59 61 60 57 51 44
37 36 36 36 36 38 39 40 41 44 44 44 43 41 38 36 37 37 35 30 28 28 27 25 24 22 20 19 19 18 17 16 16 15 15 15 16 17 18 20 20 20 21 21 20 19 19 19 21 23 26 29 33 35 36 41 45 46 44 44 49 55 56 54 55 57 54 50 52 58 61 62 56 47
38 38 38 39 39 42 44 44 44 45 45 45 45 42 38 37 37 36 32 29 28 27 25 24 23 22 20 19 19 17 16 15 15 14 14 14 15 16 18 19 19 20 21 22 22 21 21 22 23 26 29 31 34 36 35 36 41 44 45 46 51 55 56 55 55 57 56 50 47 50 60 68 66 54
40 40 41 41 42 45 47 48 47 46 46 46 46 44 42 40 38 35 32 30 29 27 26 25 23 21 20 19 18 17 16 15 14 13 13 14 14 16 17 19 19 20 21 23 23 21 22 24 26 29 33 36 39 43 40 33 34 41 48 51 53 54 55 57 57 57 55 51 48 48 54 67 73 61
43 43 43 43 45 47 49 50 49 47 47 47 46 46 43 41 38 35 32 31 30 29 27 24 22 21 20 18 17 16 15 14 13 13 13 13 14 16 17 18 19 20 21 23 23 22 22 24 26 29 34 38 43 49 49 40 34 35 41 50 55 56 56 56 57 60 58 53 52 52 51 58 71 67
46 45 45 44 45 47 49 50 51 50 48 47 46 45 42 40 37 36 34 32 31 29 26 24 22 21 19 17 16 16 15 14 13 12 12 13 14 15 17 18 19 21 22 23 22 22 23 25 26 27 30 35 41 48 53 52 45 37 36 44 52 55 56 55 56 63 63 53 49 53 52 54 64 69
48 47 47 46 45 46 47 49 50 51 50 48 47 44 42 40 38 36 35 33 31 29 26 24 22 19 18 17 16 16 15 13 12 12 12 13 14 15 17 18 20 21 23 23 23 22 23 24 26 26 27 30 37 44 51 56 56 49 41 41 45 49 54 55 55 60 65 58 51 53 55 53 57 64
49 48 48 47 46 45 45 46 48 49 49 48 46 44 42 40 38 36 35 33 31 28 26 23 21 19 18 17 16 15 14 12 12 12 12 13 14 15 17 19 21 22 23 24 24 23 24 25 26 27 27 29 34 40 45 51 56 57 50 44 41 41 44 48 51 55 62 62 56 57 61 60 59 61
49 48 48 47 46 44 43 44 46 47 47 46 44 42 40 39 38 37 35 32 29 27 24 22 21 19 18 17 16 14 13 12 12 12 12 12 14 15 17 19 21 22 24 26 26 25 26 26 26 27 29 32 35 38 41 47 54 57 55 50 44 38 35 37 43 50 57 58 55 58 65 67 65 63
48 48 47 46 45 43 41 41 43 44 44 42 40 39 38 37 36 34 31 29 27 24 22 21 20 18 17 17 15 14 13 12 12 12 12 13 14 15 17 19 20 21 24 26 28 28 27 27 27 28 30 33 35 37 41 47 53 57 57 55 52 47 40 36 37 41 48 51 50 55 63 65 62 61
47 47 47 46 44 42 39 38 40 40 40 39 38 38 38 36 33 31 29 27 25 22 21 20 19 18 16 16 14 13 12 12 12 12 12 13 15 16 17 18 19 21 23 26 29 30 30 29 30 31 32 34 34 36 40 47 52 56 58 58 58 56 52 45 39 39 41 43 43 47 56 60 58 57
46 46 46 45 42 39 37 35 35 36 36 37 37 37 37 35 33 31 28 26 23 22 21 20 18 16 15 15 14 13 12 12 12 12 13 14 16 17 17 18 19 20 23 27 30 31 32 32 32 33 35 35 34 34 40 47 50 53 57 59 60 60 59 56 51 47 43 41 40 41 44 48 51 54
47 47 45 42 39 36 34 32 32 33 35 37 37 36 35 33 31 29 26 24 22 21 20 18 17 16 15 14 13 12 12 13 13 13 14 15 16 17 17 17 19 21 23 26 30 33 34 34 34 35 36 38 37 37 40 45 49 52 55 57 59 61 62 61 60 59 55 51 48 45 43 43 45 52
48 45 42 38 35 33 32 31 31 33 35 36 36 35 33 31 28 26 24 23 22 20 19 17 16 15 14 13 12 12 12 13 14 14 15 16 16 17 17 17 19 21 23 26 30 34 36 37 37 38 39 40 40 40 42 44 47 51 54 56 59 60 61 61 62 63 62 61 57 53 50 49 47 48
Wind_Direction
232 233 235 237 238 239 239 238 238 239 241 243 245 248 247 246 245 244 245 242 234 229 225 225 231 236 242 253 262 272 288 297 305 312 316 321 324 326 327 328 331 332 332 330 329 329 329 329 329 329 330 329 328 328 328 327 327 326 325 325 324 322 321 319 316 314 311 310 308 306 304 302 299 297
231 232 234 235 236 237 237 236 236 236 238 240 242 245 245 245 247 249 249 245 236 228 224 226 231 235 238 244 250 260 275 287 298 306 312 318 322 324 326 328 330 330 328 328 328 327 328 328 329 330 330 329 329 328 327 326 326 325 324 323 322 321 320 318 316 314 312 309 307 305 302 300 297 295
230 231 233 234 235 235 235 234 234 234 235 237 238 241 244 245 247 249 249 245 242 238 233 234 239 246 252 254 258 269 281 292 301 308 314 320 323 325 327 329 329 329 328 328 328 326 326 325 326 327 327 327 326 325 324 324 324 322 321 320 319 318 317 316 315 314 312 309 307 305 302 299 297 295
231 232 232 233 234 234 234 234 233 233 234 234 235 238 241 243 244 246 247 247 247 245 242 246 252 257 263 268 274 283 293 301 307 312 317 322 324 326 329 329 328 328 327 325 323 320 320 321 322 323 324 323 322 321 320 320 319 318 317 317 316 316 315 314 313 313 311 310 309 307 305 302 299 296
231 232 233 233 234 234 234 234 234 233 232 232 233 235 237 240 243 244 245 245 246 246 246 249 255 259 266 273 277 283 292 299 304 309 314 318 320 320 323 323 322 321 320 317 316 315 317 319 320 321 321 320 319 319 320 320 320 319 318 317 316 314 313 312 311 311 310 310 309 308 307 305 302 299
231 232 232 233 233 233 233 233 233 233 233 232 233 234 236 239 241 242 242 241 242 246 248 250 253 258 263 269 272 275 279 284 292 299 304 308 309 310 314 316 316 316 315 314 315 317 318 318 319 318 317 317 320 323 325 324 323 322 320 318 316 315 314 313 311 310 309 309 308 307 306 305 304 302
231 231 232 232 232 232 232 232 232 232 232 232 232 234 235 237 238 239 239 240 240 244 246 248 251 256 259 261 264 269 272 276 282 288 294 298 302 306 311 314 315 316 315 315 316 317 316 315 315 315 316 321 326 328 326 324 322 320 318 317 316 315 314 313 313 311 310 310 308 308 306 305 304 302
232 232 232 232 232 231 231 232 232 232 232 232 232 232 234 235 237 238 238 240 240 242 244 247 249 251 255 257 260 266 272 277 281 285 290 295 298 303 308 311 312 313 311 311 311 311 310 311 313 316 319 325 327 325 323 322 320 319 317 316 314 313 312 312 312 312 312 311 311 310 309 308 306 304
233 233 233 233 232 231 231 231 232 232 233 233 232 232 233 234 234 235 238 240 240 241 244 248 250 251 254 257 260 266 271 276 281 285 288 291 294 298 303 307 307 307 306 305 307 310 311 314 318 321 324 327 327 324 322 322 322 320 319 318 316 314 312 311 311 311 311 312 312 312 312 311 310 307
234 234 234 234 233 232 232 232 233 233 234 233 233 232 233 234 234 235 238 239 241 242 244 247 250 253 256 258 261 265 270 274 279 282 284 287 290 293 296 300 301 301 301 302 306 311 314 319 322 324 326 327 325 323 322 322 322 322 322 320 319 317 315 313 312 311 311 310 311 311 312 311 310 308
234 234 234 234 234 233 233 234 234 234 233 233 233 234 234 234 234 235 237 239 241 243 244 245 248 252 255 258 260 265 269 273 276 279 281 284 288 291 295 298 300 301 302 305 311 319 321 323 323 322 324 326 324 323 324 324 324 323 323 322 321 321 319 317 315 313 311 309 308 308 308 308 308 307
234 234 234 235 235 235 235 236 236 236 235 234 233 232 232 233 233 234 236 238 240 241 242 242 243 247 252 256 259 263 267 270 273 278 282 286 288 291 295 302 307 307 309 313 322 329 328 324 322 323 327 328 326 326 328 328 328 326 325 324 323 322 319 317 315 313 311 309 307 306 306 307 307 307
233 233 233 234 235 235 235 236 237 236 236 235 234 232 231 231 231 232 234 236 238 239 239 238 240 243 248 253 257 261 265 268 273 278 283 287 290 291 296 309 315 313 314 317 323 329 327 323 324 328 332 332 329 330 332 332 331 329 327 326 326 323 320 318 317 316 315 312 310 309 308 308 308 308
232 232 232 233 234 234 234 235 235 234 234 233 233 234 234 233 232 232 233 235 237 238 238 238 239 242 245 250 254 259 264 268 272 275 279 285 288 290 300 315 320 315 315 316 319 325 328 325 326 332 336 334 331 331 332 333 332 329 328 329 329 327 325 323 322 320 318 315 314 312 311 311 310 310
234 233 232 232 232 232 232 232 232 232 231 230 229 229 230 231 232 233 233 235 236 237 238 238 239 242 245 248 250 256 261 265 268 271 275 280 283 288 301 315 320 315 314 315 317 324 330 327 325 331 336 333 330 329 331 332 330 329 330 331 331 328 326 324 322 321 320 319 318 316 315 315 313 311
236 234 233 232 231 231 231 231 230 229 228 227 226 226 226 226 228 231 232 234 235 236 237 237 239 243 245 245 248 254 259 261 263 267 271 276 281 289 301 312 318 317 316 317 319 323 328 327 324 329 334 331 327 327 329 331 330 330 332 333 331 327 324 323 322 322 322 321 319 318 317 317 314 310
238 237 235 234 233 232 231 230 229 228 226 225 223 223 224 225 226 228 230 233 234 235 236 237 240 243 243 244 249 254 257 258 260 263 268 275 282 291 301 309 317 321 320 320 319 319 324 326 323 326 332 328 324 325 328 331 330 330 332 332 329 326 323 323 323 323 321 319 318 317 316 316 314 311
241 240 238 237 235 234 232 230 229 227 226 224 222 221 223 225 226 226 228 230 232 233 233 235 238 241 242 244 249 252 255 257 260 263 269 277 283 291 300 308 315 321 321 319 317 316 321 326 322 323 328 325 322 324 328 329 328 327 330 329 326 324 322 322 322 321 318 316 316 316 315 314 314 311
242 242 241 239 238 236 234 232 230 228 226 225 224 224 225 225 225 226 227 229 231 232 232 233 236 238 241 245 248 251 253 256 259 264 270 277 283 290 298 306 312 316 316 316 315 314 320 325 321 320 325 324 321 323 326 326 325 326 329 328 324 323 322 321 320 318 316 315 315 315 315 315 314 312
241 241 241 240 239 238 237 235 232 229 227 226 225 225 226 226 226 226 228 230 231 232 232 233 233 236 241 246 248 249 251 254 258 264 270 276 283 289 296 301 305 308 311 313 314 313 318 323 321 321 324 322 320 321 323 322 323 326 328 327 323 322 322 320 318 317 316 316 315 316 316 315 315 312
241 240 240 240 239 238 237 234 231 229 227 226 226 227 227 226 225 225 227 228 229 230 231 231 232 235 241 244 244 244 246 252 257 261 265 271 277 284 291 297 302 306 311 314 314 313 316 322 323 321 321 319 318 319 321 321 322 326 328 326 322 321 321 319 318 319 320 319 318 318 317 315 314 312
241 240 240 239 238 238 236 233 230 228 227 226 226 226 226 226 225 225 226 226 226 227 227 228 230 233 237 238 237 237 240 248 254 256 259 264 272 280 288 297 302 307 313 315 314 313 315 321 325 322 319 317 316 318 321 321 323 325 327 325 322 321 321 321 322 323 323 322 320 319 317 316 316 314
239 238 238 237 237 236 235 232 229 228 227 227 227 227 227 227 227 227 227 226 225 225 225 226 228 231 234 234 233 234 238 244 249 253 258 263 271 279 286 295 301 307 315 318 315 313 314 321 327 326 323 319 317 318 320 320 321 323 325 324 323 323 323 324 325 326 326 324 322 320 319 318 316 314
237 237 236 236 235 235 233 230 227 227 227 227 227 227 228 229 230 229 227 226 225 225 226 227 229 232 233 230 228 230 234 239 245 251 257 263 272 279 285 292 297 303 314 316 312 312 315 321 326 326 323 318 314 313 315 316 318 321 322 322 322 323 325 325 326 328 327 325 322 320 320 318 314 309
239 238 237 235 234 232 230 226 224 225 226 226 226 228 230 231 231 230 227 225 224 224 226 228 229 230 228 223 222 225 230 236 241 247 255 262 270 278 286 292 295 300 309 311 311 313 315 320 323 321 319 314 309 310 312 313 316 318 318 319 321 323 324 325 326 326 325 323 321 320 319 318 312 304
241 241 240 237 235 232 229 225 222 223 225 226 226 228 230 229 229 228 226 224 223 223 225 226 226 225 222 219 220 224 228 233 238 244 252 260 269 278 286 291 295 301 308 310 311 313 313 317 320 318 316 313 309 309 310 311 314 316 316 318 321 322 324 325 324 323 322 322 321 319 318 316 310 302
244 243 242 239 236 234 231 226 221 221 225 227 227 227 227 226 226 226 223 221 221 223 225 225 222 218 217 217 220 224 228 232 238 244 251 260 269 277 284 290 294 301 307 309 311 312 311 313 316 315 313 312 309 309 309 310 314 316 315 317 320 322 323 324 323 322 321 321 321 319 317 315 309 300
246 246 244 240 237 234 230 225 221 221 225 228 227 225 225 225 224 222 220 219 221 224 225 222 217 213 215 218 221 226 230 234 240 246 253 261 269 276 281 287 291 298 304 306 308 310 309 309 311 311 310 309 309 309 310 311 314 316 316 316 317 320 322 323 322 320 319 319 319 318 316 313 310 302
245 245 244 241 236 232 227 223 220 219 221 225 227 227 225 223 221 220 219 219 223 225 223 217 213 212 215 217 221 226 230 235 242 248 254 262 270 276 280 284 289 295 300 301 302 305 306 306 308 308 307 309 309 309 311 312 313 314 316 316 317 319 322 323 322 320 319 318 317 317 315 310 306 304
244 242 239 234 229 227 224 222 218 214 212 218 225 225 222 220 219 219 219 221 223 221 216 210 208 211 214 217 221 225 230 237 244 250 257 264 269 274 278 282 286 290 293 295 298 302 304 305 306 306 306 309 311 311 311 311 310 311 314 315 315 317 320 322 322 321 320 319 316 316 316 311 304 303
239 236 233 229 227 225 221 218 215 211 206 208 213 214 214 215 217 219 221 222 220 214 207 205 207 211 215 218 222 226 232 240 247 253 260 264 267 273 278 281 285 288 289 293 299 303 305 306 306 306 308 310 312 313 311 307 306 309 314 317 316 314 316 321 323 321 321 319 315 313 314 311 306 303
232 231 229 227 225 219 212 208 207 206 202 200 202 205 207 211 217 220 219 216 210 206 205 206 208 212 217 220 225 230 236 243 250 256 262 267 271 277 281 284 289 293 294 298 304 306 306 305 306 308 310 312 313 314 312 306 305 308 312 317 319 316 315 318 320 319 319 316 312 310 310 308 305 302
227 225 223 221 217 208 201 200 201 201 200 199 200 202 203 208 215 217 214 208 206 206 207 207 210 214 218 222 228 234 238 244 251 258 264 271 277 281 284 287 293 299 303 307 312 312 310 311 310 310 312 313 314 314 311 310 310 312 313 316 317 318 319 320 318 316 315 311 306 306 307 306 305 301
224 221 217 214 210 203 198 199 201 201 201 200 199 200 203 209 215 215 212 209 208 208 208 210 212 215 219 224 230 234 239 245 253 260 267 274 279 283 287 291 297 304 308 312 316 318 319 321 321 317 315 314 312 310 309 311 313 314 315 316 315 315 319 322 320 316 314 309 302 300 302 305 306 303
219 218 214 210 206 202 200 200 201 202 202 202 201 203 207 211 213 213 211 209 208 207 208 211 213 215 219 225 230 235 241 247 253 261 270 276 281 285 290 295 302 308 311 312 316 322 327 330 332 327 321 317 315 313 313 314 315 315 316 318 317 315 316 320 321 316 311 306 303 300 298 302 306 306
215 214 213 209 206 204 202 202 203 203 203 204 207 209 211 211 212 211 209 207 206 207 208 210 212 215 220 225 232 238 244 250 255 262 270 276 282 287 293 299 305 310 312 313 317 325 331 334 337 333 327 324 321 317 316 316 316 313 313 317 319 318 316 319 321 319 314 308 305 303 298 298 304 305
213 212 211 210 208 206 205 204 205 206 207 209 213 214 214 213 212 210 207 205 205 205 207 209 212 217 222 227 234 241 247 253 259 265 272 278 284 290 296 301 306 309 310 312 317 326 332 334 336 335 329 324 319 316 315 316 315 311 308 311 315 318 319 319 319 321 319 312 305 303 300 296 299 303
210 210 209 209 209 209 208 207 207 208 209 212 214 214 214 214 211 208 206 205 204 205 206 208 212 217 223 229 235 242 248 254 263 270 276 283 289 295 301 304 307 308 309 312 318 325 330 332 333 332 328 318 311 311 314 316 314 312 310 306 305 311 317 317 315 316 316 312 305 304 302 295 293 299
209 209 209 210 210 211 211 211 211 211 211 212 212 212 212 211 208 206 206 204 204 205 205 208 212 217 223 229 235 241 247 255 265 271 278 287 295 301 305 305 307 308 310 313 318 322 326 329 330 329 324 314 308 309 311 310 309 311 315 313 304 301 305 310 310 310 311 311 309 308 307 303 298 299
208 208 211 213 213 213 214 215 215 214 213 213 212 211 211 209 206 205 204 203 203 204 204 208 212 216 222 229 234 239 246 254 262 270 280 290 297 303 306 305 307 311 312 313 317 321 324 327 328 326 321 315 312 312 309 306 307 312 318 321 317 306 295 294 299 303 306 308 308 306 307 306 305 305
206 207 210 213 214 214 215 217 218 217 215 214 212 210 209 207 205 204 203 202 203 204 205 209 213 217 223 229 234 239 246 254 261 272 284 293 299 305 307 305 309 313 313 313 316 320 324 326 326 325 322 318 318 317 311 306 309 314 319 322 322 318 306 293 288 291 297 301 302 301 302 303 302 302
207 208 209 210 212 214 216 219 221 219 215 212 209 206 205 203 201 202 202 202 202 204 207 210 215 218 224 230 236 241 248 256 266 277 288 297 302 305 306 307 311 314 314 314 316 320 324 326 327 327 324 321 321 317 311 309 311 314 318 321 322 322 320 311 301 294 292 293 293 294 298 302 302 300
208 209 210 210 210 212 216 221 222 217 212 208 206 204 201 199 199 200 201 202 203 205 208 211 215 219 225 231 239 245 253 262 273 282 291 298 303 306 308 310 312 314 315 316 318 320 323 326 328 327 324 323 322 316 311 312 313 313 315 319 320 322 325 323 318 312 305 299 295 291 289 291 294 294
209 210 211 211 211 212 216 219 217 212 207 204 202 200 198 199 200 200 201 202 204 206 210 212 215 220 226 233 241 251 260 270 279 287 293 299 305 307 309 311 313 316 319 320 320 321 322 325 328 328 324 323 323 318 312 313 313 312 315 317 318 320 324 326 324 322 318 314 312 309 302 292 286 286
210 210 211 212 212 212 214 213 208 204 203 201 198 196 196 196 198 198 200 202 205 207 210 213 217 222 229 236 246 256 267 276 283 289 296 303 307 307 308 313 318 320 322 322 321 321 323 324 326 327 326 324 323 321 317 314 313 313 316 317 317 319 322 324 324 322 319 317 318 319 316 309 300 293